EW7402 Weather Reports


Display with metric or nautical units.
time (UTC)temp
F
wind
direction
speed
MPH
gust
MPH
rain 1hr
in
rain 24hr
in
rain mn
in
humidity
%
barometer
mb
20260506034306 49 11 3.0 10.0 0.00 0.00 0.00 84 1007.8
20260506033806 48 51 4.0 10.0 0.00 0.00 0.00 84 1007.8
20260506033311 48 16 4.0 9.0 0.00 0.00 0.00 84 1007.8
20260506032306 49 38 4.0 10.0 0.00 0.00 0.00 83 1007.9
20260506031805 49 343 4.0 12.0 0.00 0.00 0.00 83 1007.9
20260506031305 49 32 4.0 12.0 0.00 0.00 0.00 83 1007.9
20260506030821 49 0 4.0 12.0 0.00 0.00 0.00 83 1007.9
20260506030307 49 34 4.0 10.0 0.00 0.00 0.00 82 1008.0
20260506025806 49 344 4.0 11.0 0.00 0.00 0.00 82 1008.0
20260506025532 49 24 4.0 11.0 0.00 0.00 0.00 82 1008.1
20260506024754 49 0 4.0 11.0 0.00 0.00 0.00 82 1008.2
20260506024250 49 355 4.0 10.0 0.00 0.00 0.00 82 1008.2
20260506023741 49 355 4.0 10.0 0.00 0.00 0.00 82 1008.2
20260506023236 49 23 4.0 12.0 0.00 0.00 0.00 82 1008.2
20260506022730 49 34 4.0 12.0 0.00 0.00 0.00 82 1008.2
20260506022231 49 348 4.0 12.0 0.00 0.00 0.00 82 1008.3
20260506021212 49 11 4.0 11.0 0.00 0.00 0.00 82 1008.3
20260506020937 49 32 4.0 11.0 0.00 0.00 0.00 82 1008.2
20260506020158 49 44 3.0 14.0 0.00 0.00 0.00 82 1008.4
20260506015650 49 355 4.0 12.0 0.00 0.00 0.00 82 1008.3
20260506015146 49 27 4.0 12.0 0.00 0.00 0.00 82 1008.5
20260506014916 49 22 3.0 11.0 0.00 0.00 0.00 82 1008.4
20260506014134 49 28 4.0 12.0 0.00 0.00 0.00 82 1008.5
20260506013628 49 77 4.0 12.0 0.00 0.00 0.00 82 1008.5
20260506013123 49 17 3.0 13.0 0.00 0.00 0.00 82 1008.4
20260506012616 49 9 4.0 13.0 0.00 0.00 0.00 82 1008.5
20260506012110 49 349 4.0 12.0 0.00 0.00 0.00 82 1008.6
20260506011605 49 0 4.0 11.0 0.00 0.00 0.00 81 1008.6
20260506011058 49 344 4.0 11.0 0.00 0.00 0.00 81 1008.7
20260506010552 49 29 4.0 11.0 0.00 0.00 0.00 81 1008.7
20260506010059 49 52 4.0 10.0 0.00 0.00 0.00 81 1008.6
20260506005540 49 338 4.0 10.0 0.00 0.00 0.00 81 1008.7
20260506005034 49 23 5.0 12.0 0.00 0.00 0.00 81 1008.8
20260506004529 49 336 4.0 12.0 0.00 0.00 0.00 81 1008.9
20260506004022 49 12 4.0 10.0 0.00 0.00 0.00 81 1008.8
20260506003749 49 40 3.0 10.0 0.00 0.00 0.00 81 1008.9
20260506003010 49 42 3.0 10.0 0.00 0.00 0.00 81 1008.9
20260506002741 49 9 3.0 10.0 0.00 0.00 0.00 80 1009.0
20260506002001 49 40 3.0 11.0 0.00 0.00 0.00 80 1009.0
20260506001452 49 34 3.0 13.0 0.00 0.00 0.00 80 1009.0
20260506001220 49 39 4.0 13.0 0.00 0.00 0.00 80 1009.2
20260506000440 49 318 4.0 11.0 0.00 0.00 0.00 80 1009.2
20260505235935 49 18 4.0 11.0 0.00 0.00 0.00 80 1009.3
20260505235428 49 339 3.0 11.0 0.00 0.00 0.00 80 1009.2
20260505234922 49 350 4.0 10.0 0.00 0.00 0.00 80 1009.3
20260505234416 49 22 4.0 11.0 0.00 0.00 0.00 80 1009.3
20260505233910 49 344 3.0 11.0 0.00 0.00 0.00 80 1009.3
20260505233405 49 22 3.0 10.0 0.00 0.00 0.00 80 1009.3
20260505232858 49 31 3.0 11.0 0.00 0.00 0.00 80 1009.3
20260505232352 49 329 4.0 11.0 0.00 0.00 0.00 80 1009.3
20260505231846 49 0 4.0 10.0 0.00 0.00 0.00 79 1009.3
20260505231615 49 12 4.0 12.0 0.00 0.00 0.00 80 1009.3
20260505230834 49 28 3.0 12.0 0.00 0.00 0.00 80 1009.4
20260505230340 49 0 3.0 10.0 0.00 0.00 0.00 80 1009.5
20260505225821 49 355 3.0 13.0 0.00 0.00 0.00 80 1009.4
20260505225316 49 9 3.0 13.0 0.00 0.00 0.00 80 1009.5
20260505225045 49 355 3.0 10.0 0.00 0.00 0.00 80 1009.4
20260505224314 49 348 4.0 13.0 0.00 0.00 0.00 80 1009.6
20260505223814 49 79 4.0 13.0 0.00 0.00 0.00 80 1009.5
20260505223313 49 40 4.0 11.0 0.00 0.00 0.00 80 1009.6
20260505222813 49 338 4.0 11.0 0.00 0.00 0.00 80 1009.6
20260505222313 49 32 4.0 10.0 0.00 0.00 0.00 81 1009.7
20260505221816 49 344 5.0 13.0 0.00 0.00 0.00 80 1009.7
20260505221313 49 36 5.0 13.0 0.00 0.00 0.00 80 1009.7
20260505220814 49 61 5.0 15.0 0.00 0.00 0.00 80 1009.7
20260505220313 49 40 4.0 15.0 0.00 0.00 0.00 80 1009.7
20260505215811 49 344 4.0 11.0 0.00 0.00 0.00 81 1009.7
20260505215313 50 45 4.0 11.0 0.00 0.00 0.00 81 1009.8
20260505214811 50 9 5.0 13.0 0.00 0.00 0.00 81 1009.9
20260505214315 50 69 5.0 14.0 0.00 0.00 0.00 81 1010.0
20260505213300 50 56 4.0 12.0 0.00 0.00 0.00 81 1010.1
20260505213028 50 34 4.0 10.0 0.00 0.00 0.00 81 1009.9
20260505212247 50 19 4.0 13.0 0.00 0.00 0.00 81 1010.0
20260505211752 50 19 4.0 13.0 0.00 0.00 0.00 81 1010.1
20260505210743 50 344 4.0 11.0 0.00 0.00 0.00 81 1010.1
20260505210245 50 0 4.0 10.0 0.00 0.00 0.00 81 1010.2
20260505205745 50 38 4.0 10.0 0.00 0.00 0.00 80 1010.2
20260505205245 50 46 5.0 10.0 0.00 0.00 0.00 80 1010.2
20260505204744 50 47 4.0 10.0 0.00 0.00 0.00 80 1010.2
20260505203739 50 67 4.0 16.0 0.00 0.00 0.00 80 1010.3
20260505203514 50 27 4.0 16.0 0.00 0.00 0.00 80 1010.4
20260505202740 50 32 5.0 15.0 0.00 0.00 0.00 80 1010.4
20260505202241 50 17 4.0 12.0 0.00 0.00 0.00 80 1010.4
20260505201737 50 60 3.0 12.0 0.00 0.00 0.00 79 1010.4
20260505201237 50 36 4.0 12.0 0.00 0.00 0.00 79 1010.3
20260505201016 50 51 5.0 12.0 0.00 0.00 0.00 79 1010.2
20260505200238 50 0 4.0 12.0 0.00 0.00 0.00 79 1010.3
20260505195738 50 333 4.0 13.0 0.00 0.00 0.00 79 1010.2
20260505195515 50 340 3.0 13.0 0.00 0.00 0.00 79 1010.1
20260505194730 50 45 3.0 10.0 0.00 0.00 0.00 79 1010.0
20260505194226 50 43 4.0 11.0 0.00 0.00 0.00 79 1010.1
20260505193720 50 45 5.0 12.0 0.00 0.00 0.00 79 1010.1
20260505193214 50 22 4.0 12.0 0.00 0.00 0.00 79 1010.1
20260505192708 50 338 3.0 9.0 0.00 0.00 0.00 79 1010.1
20260505192202 50 19 3.0 12.0 0.00 0.00 0.00 79 1010.0
20260505191657 50 9 3.0 9.0 0.00 0.00 0.00 78 1010.0
20260505191152 51 9 3.0 11.0 0.00 0.00 0.00 78 1010.0
20260505190924 51 355 4.0 12.0 0.00 0.00 0.00 78 1010.0
20260505190138 51 350 4.0 12.0 0.00 0.00 0.00 78 1009.9
20260505185632 51 30 4.0 12.0 0.00 0.00 0.00 78 1009.9
20260505185126 51 22 4.0 12.0 0.00 0.00 0.00 77 1009.9
20260505184620 51 16 5.0 15.0 0.00 0.00 0.00 77 1009.8
20260505184113 51 71 5.0 15.0 0.00 0.00 0.00 77 1009.9
20260505183608 51 76 4.0 13.0 0.00 0.00 0.00 77 1009.8
20260505183102 51 30 4.0 11.0 0.00 0.00 0.00 77 1009.8
20260505182556 51 40 4.0 11.0 0.00 0.00 0.00 77 1009.8
20260505182050 51 355 3.0 11.0 0.00 0.00 0.00 76 1009.8
20260505181545 51 95 4.0 11.0 0.00 0.00 0.00 76 1009.9
20260505181037 51 48 4.0 13.0 0.00 0.00 0.00 75 1009.9
20260505180533 52 45 4.0 13.0 0.00 0.00 0.00 75 1009.8
20260505180258 52 51 4.0 12.0 0.00 0.00 0.00 75 1009.8
20260505175522 52 69 4.0 13.0 0.00 0.00 0.00 75 1009.8
20260505175014 52 18 4.0 13.0 0.00 0.00 0.00 75 1009.8
20260505174741 52 21 4.0 10.0 0.00 0.00 0.00 75 1009.9
20260505174002 52 65 4.0 10.0 0.00 0.00 0.00 75 1009.9
20260505173457 52 70 3.0 11.0 0.00 0.00 0.00 75 1009.9
20260505173222 52 98 3.0 11.0 0.00 0.00 0.00 75 1010.0
20260505172444 52 46 2.0 9.0 0.00 0.00 0.00 75 1009.8
20260505171939 52 52 3.0 8.0 0.00 0.00 0.00 75 1009.8
20260505171433 52 30 4.0 12.0 0.00 0.00 0.00 75 1010.0
20260505170928 52 37 4.0 14.0 0.00 0.00 0.00 75 1010.0
20260505170440 53 23 3.0 14.0 0.00 0.00 0.00 75 1010.0
20260505165928 53 344 3.0 10.0 0.00 0.00 0.00 74 1010.0
20260505165657 53 64 4.0 10.0 0.00 0.00 0.00 74 1010.1
20260505164925 53 49 4.0 10.0 0.00 0.00 0.00 73 1010.0
20260505164426 53 0 3.0 10.0 0.00 0.00 0.00 74 1010.0
20260505163925 53 17 3.0 10.0 0.00 0.00 0.00 74 1010.0
20260505163658 53 62 4.0 12.0 0.00 0.00 0.00 74 1010.1
20260505162926 53 61 4.0 12.0 0.00 0.00 0.00 74 1010.0
20260505162427 53 97 3.0 10.0 0.00 0.00 0.00 74 1010.0
20260505161928 53 60 4.0 10.0 0.00 0.00 0.00 74 1010.1
20260505161425 53 355 3.0 12.0 0.00 0.00 0.00 74 1010.0
20260505160925 53 61 3.0 12.0 0.00 0.00 0.00 75 1010.0
20260505160425 53 69 4.0 11.0 0.00 0.00 0.00 75 1010.1
20260505152422 53 355 3.0 10.0 0.00 0.00 0.00 74 1010.2
20260505151924 53 38 3.0 11.0 0.00 0.00 0.00 74 1010.2
20260505151423 53 72 4.0 11.0 0.00 0.00 0.00 74 1010.2
20260505151158 53 46 4.0 10.0 0.00 0.00 0.00 74 1010.2
20260505150422 53 55 4.0 12.0 0.00 0.00 0.00 73 1010.2
20260505140420 54 54 4.0 11.0 0.00 0.00 0.00 74 1010.6
20260505130126 56 60 5.0 13.0 0.00 0.00 0.00 70 1010.9
20260505124838 55 49 4.0 15.0 0.00 0.00 0.00 70 1010.9
20260505124346 56 22 4.0 15.0 0.00 0.00 0.00 70 1010.9
20260505124101 56 69 3.0 10.0 0.00 0.00 0.00 70 1010.9
20260505123331 56 46 3.0 10.0 0.00 0.00 0.00 70 1011.0
20260505122830 56 342 3.0 12.0 0.00 0.00 0.00 69 1011.0
20260505122330 56 83 3.0 10.0 0.00 0.00 0.00 68 1011.0
20260505121826 56 69 3.0 10.0 0.00 0.17 0.00 69 1011.0
20260505121327 56 32 4.0 12.0 0.00 0.17 0.00 69 1011.0
20260505120827 56 81 4.0 12.0 0.00 0.35 0.00 69 1011.0
20260505120322 56 59 4.0 12.0 0.00 0.35 0.00 68 1010.9
20260505115822 56 31 4.0 12.0 0.00 0.35 0.00 70 1011.0
20260505115323 56 0 3.0 10.0 0.00 0.39 0.00 67 1011.0
20260505114822 56 80 3.0 8.0 0.00 0.48 0.00 67 1011.0
20260505114323 56 348 3.0 8.0 0.00 0.48 0.00 67 1011.0
20260505113822 56 41 3.0 9.0 0.00 0.48 0.00 69 1011.0
20260505113322 56 54 4.0 9.0 0.00 0.48 0.00 69 1011.0
20260505112822 56 39 4.0 11.0 0.00 0.48 0.00 69 1011.0
20260505112322 56 38 4.0 11.0 0.00 0.48 0.00 70 1011.0
20260505111825 55 44 2.0 8.0 0.00 0.48 0.00 70 1011.1
20260505111319 54 47 3.0 9.0 0.00 0.48 0.00 70 1011.1
20260505110811 54 51 4.0 9.0 0.00 0.48 0.00 71 1011.2
20260505110305 54 43 4.0 11.0 0.00 0.48 0.00 72 1011.3
20260505102217 52 67 4.0 13.0 0.00 0.48 0.00 75 1011.5
20260505101711 51 58 3.0 10.0 0.00 0.48 0.00 75 1011.5
20260505101204 51 46 3.0 7.0 0.00 0.48 0.00 75 1011.5
20260505100659 51 76 3.0 7.0 0.00 0.48 0.00 76 1011.6
20260505100154 51 79 2.0 8.0 0.00 0.48 0.00 78 1011.5
20260505095647 51 91 3.0 8.0 0.00 0.48 0.00 77 1011.5
20260505095141 51 44 4.0 9.0 0.00 0.48 0.00 77 1011.5
20260505094636 51 74 4.0 10.0 0.00 0.48 0.00 77 1011.4
20260505094129 51 67 4.0 11.0 0.00 0.48 0.00 80 1011.4
20260505093855 50 46 4.0 11.0 0.00 0.48 0.00 80 1011.5
20260505093117 50 17 5.0 13.0 0.00 0.48 0.00 80 1011.4
20260505092611 50 340 5.0 13.0 0.00 0.48 0.00 80 1011.4
20260505092107 50 346 3.0 10.0 0.00 0.48 0.00 82 1011.6
20260505091830 50 37 3.0 11.0 0.00 0.48 0.00 82 1011.6
20260505091053 49 341 3.0 11.0 0.00 0.48 0.00 82 1011.5
20260505090821 49 57 3.0 11.0 0.00 0.48 0.00 83 1011.5
20260505090054 49 61 3.0 11.0 0.00 0.48 0.00 83 1011.5
20260505085807 49 23 3.0 9.0 0.00 0.48 0.00 83 1011.6
20260505085031 49 46 4.0 12.0 0.00 0.48 0.00 83 1011.5
20260505084523 49 43 3.0 12.0 0.00 0.48 0.00 83 1011.7
20260505084019 49 30 3.0 12.0 0.00 0.48 0.00 83 1011.6
20260505083512 49 44 3.0 12.0 0.00 0.48 0.00 83 1011.7
20260505083237 49 30 3.0 9.0 0.00 0.48 0.00 84 1011.7
20260505082458 49 51 3.0 9.0 0.00 0.48 0.00 84 1011.8
20260505082228 49 65 3.0 8.0 0.00 0.48 0.00 83 1011.7
20260505081724 49 328 3.0 11.0 0.00 0.48 0.00 84 1011.7
20260505080940 49 10 3.0 11.0 0.00 0.48 0.00 83 1011.8
20260505080435 49 75 2.0 8.0 0.00 0.48 0.00 84 1011.7
20260505075928 49 25 3.0 10.0 0.00 0.48 0.00 84 1011.9
20260505075423 49 26 3.0 10.0 0.00 0.48 0.00 84 1012.0
20260505075150 49 89 3.0 10.0 0.00 0.48 0.00 85 1012.1
20260505074412 49 18 3.0 9.0 0.00 0.48 0.00 85 1012.1
20260505073903 49 355 3.0 10.0 0.00 0.48 0.00 86 1012.2
20260505073358 49 63 3.0 10.0 0.00 0.48 0.00 86 1012.1
20260505073127 48 51 3.0 10.0 0.00 0.48 0.00 86 1011.9
20260505072347 48 0 2.0 7.0 0.00 0.48 0.00 87 1012.0
20260505071841 48 59 2.0 7.0 0.00 0.48 0.00 87 1012.0
20260505071335 48 80 2.0 8.0 0.00 0.48 0.00 87 1011.9
20260505070831 48 20 3.0 8.0 0.00 0.48 0.00 87 1012.0
20260505070332 48 50 3.0 8.0 0.00 0.48 0.00 87 1012.0
20260505065835 48 30 3.0 10.0 0.00 0.48 0.00 87 1012.0
20260505064830 48 38 3.0 11.0 0.00 0.48 0.00 87 1011.9
20260505064329 48 45 2.0 9.0 0.00 0.48 0.00 87 1011.9
20260505063831 48 355 2.0 6.0 0.00 0.48 0.00 87 1011.9
20260505063330 48 355 3.0 8.0 0.00 0.48 0.00 87 1012.0
20260505062831 48 65 3.0 10.0 0.00 0.48 0.00 88 1011.9
20260505062329 48 40 3.0 10.0 0.00 0.48 0.00 87 1012.0
20260505061831 48 32 3.0 12.0 0.00 0.48 0.00 87 1011.8
20260505061326 48 49 3.0 12.0 0.00 0.48 0.00 87 1011.9
20260505060828 48 61 3.0 12.0 0.00 0.48 0.00 86 1011.8
20260505060326 48 355 3.0 12.0 0.00 0.48 0.00 86 1011.9
20260505055825 48 28 3.0 9.0 0.00 0.48 0.00 86 1011.9
20260505055325 48 23 3.0 10.0 0.00 0.48 0.00 86 1011.8
20260505054828 48 25 3.0 10.0 0.00 0.48 0.00 86 1011.8
20260505054327 48 9 2.0 9.0 0.00 0.48 0.00 86 1011.8
20260505053826 48 31 2.0 6.0 0.00 0.48 0.00 86 1011.8
20260505053615 48 340 2.0 6.0 0.00 0.48 0.00 86 1011.9
20260505053058 48 48 2.0 6.0 0.00 0.48 0.00 86 1011.8
20260505052323 48 49 2.0 5.0 0.00 0.48 0.00 86 1011.8
20260505051823 48 20 2.0 7.0 0.00 0.48 0.00 85 1011.8
20260505051321 48 48 3.0 12.0 0.00 0.48 0.00 85 1011.8
20260505050822 48 40 3.0 12.0 0.00 0.48 0.00 85 1011.8
20260505050321 48 59 3.0 10.0 0.00 0.48 0.00 85 1011.8
20260505041319 48 37 3.0 12.0 0.00 0.48 0.00 85 1011.8
20260505040819 48 37 4.0 12.0 0.00 0.48 0.00 85 1011.7
20260505040318 48 71 3.0 10.0 0.00 0.48 0.00 85 1011.6
20260505035819 48 33 3.0 10.0 0.00 0.48 0.00 85 1011.7
20260505035321 48 28 3.0 10.0 0.00 0.48 0.00 85 1011.8
20260505034818 48 38 3.0 10.0 0.00 0.48 0.00 85 1011.7